TimeMDT,TemperatureF,Dew PointF,Humidity,Sea Level PressureIn,VisibilityMPH,Wind Direction,Wind SpeedMPH,Gust SpeedMPH,PrecipitationIn,Events,Conditions,WindDirDegrees,DateUTC
12:15 AM,47.1,30.9,53,30.00,10.0,NW,10.4,-,N/A,,Clear,310,2013-09-23 06:15:00
12:35 AM,45.7,32.0,59,30.00,10.0,NW,9.2,-,N/A,,Clear,310,2013-09-23 06:35:00
12:55 AM,44.1,32.9,65,30.00,10.0,WNW,10.4,-,N/A,,Clear,300,2013-09-23 06:55:00
1:15 AM,46.4,31.3,56,30.01,10.0,WNW,11.5,17.3,N/A,,Clear,300,2013-09-23 07:15:00
1:35 AM,44.1,32.0,63,30.01,10.0,WNW,10.4,-,N/A,,Clear,290,2013-09-23 07:35:00
1:55 AM,46.0,31.8,58,30.01,10.0,WNW,11.5,-,N/A,,Clear,290,2013-09-23 07:55:00
2:15 AM,47.1,30.6,53,30.00,10.0,West,12.7,-,N/A,,Clear,280,2013-09-23 08:15:00
2:35 AM,48.6,29.3,47,30.01,10.0,WNW,12.7,-,N/A,,Clear,290,2013-09-23 08:35:00
2:55 AM,47.7,29.8,50,30.01,10.0,WNW,13.8,-,N/A,,Clear,300,2013-09-23 08:55:00
3:15 AM,47.7,29.5,49,30.01,10.0,WNW,12.7,-,N/A,,Clear,300,2013-09-23 09:15:00
3:35 AM,48.0,29.8,49,30.01,10.0,WNW,13.8,-,N/A,,Clear,290,2013-09-23 09:35:00
3:55 AM,47.7,30.7,52,30.01,10.0,West,13.8,-,N/A,,Clear,280,2013-09-23 09:55:00
4:15 AM,47.8,31.1,52,30.02,10.0,WNW,11.5,-,N/A,,Clear,300,2013-09-23 10:15:00
4:35 AM,43.9,32.0,63,30.02,10.0,NNW,8.1,-,N/A,,Clear,340,2013-09-23 10:35:00
4:55 AM,45.7,31.8,58,30.03,10.0,North,12.7,18.4,N/A,,Clear,10,2013-09-23 10:55:00
5:15 AM,41.9,33.6,72,30.04,10.0,North,5.8,-,N/A,,Clear,350,2013-09-23 11:15:00
5:35 AM,39.0,33.8,82,30.04,10.0,NNW,6.9,-,N/A,,Clear,330,2013-09-23 11:35:00
5:55 AM,38.3,34.0,84,30.04,10.0,NNW,5.8,-,N/A,,Clear,340,2013-09-23 11:55:00
6:15 AM,38.8,34.0,83,30.04,10.0,NNW,5.8,-,N/A,,Clear,340,2013-09-23 12:15:00
6:35 AM,39.2,34.2,82,30.06,10.0,NW,6.9,-,N/A,,Clear,320,2013-09-23 12:35:00
6:55 AM,37.4,34.0,87,30.06,10.0,NNW,5.8,-,N/A,,Clear,330,2013-09-23 12:55:00
7:15 AM,36.3,33.6,90,30.07,10.0,NNW,6.9,-,N/A,,Clear,330,2013-09-23 13:15:00
7:35 AM,39.4,35.2,85,30.07,10.0,NNW,4.6,-,N/A,,Clear,340,2013-09-23 13:35:00
7:55 AM,42.8,35.1,74,30.08,10.0,North,5.8,-,N/A,,Clear,350,2013-09-23 13:55:00
8:15 AM,45.1,34.9,67,30.09,10.0,North,8.1,-,N/A,,Clear,350,2013-09-23 14:15:00
8:35 AM,46.9,35.4,64,30.10,10.0,North,8.1,-,N/A,,Clear,350,2013-09-23 14:35:00
8:55 AM,49.3,36.3,61,30.10,10.0,North,6.9,-,N/A,,Clear,360,2013-09-23 14:55:00
9:15 AM,52.5,37.4,56,30.11,10.0,North,11.5,-,N/A,,Clear,360,2013-09-23 15:15:00
9:35 AM,54.9,36.3,50,30.12,10.0,North,10.4,-,N/A,,Clear,10,2013-09-23 15:35:00
9:55 AM,56.1,38.3,51,30.12,10.0,North,11.5,16.1,N/A,,Clear,360,2013-09-23 15:55:00
10:15 AM,58.3,34.3,41,30.12,10.0,NNW,16.1,20.7,N/A,,Clear,330,2013-09-23 16:15:00
10:35 AM,59.0,33.6,38,30.12,10.0,NNW,12.7,-,N/A,,Clear,340,2013-09-23 16:35:00
10:55 AM,60.1,33.8,37,30.12,10.0,NNW,18.4,23.0,N/A,,Clear,330,2013-09-23 16:55:00
11:15 AM,60.4,32.9,36,30.13,10.0,NW,18.4,26.5,N/A,,Clear,320,2013-09-23 17:15:00
11:35 AM,61.2,33.4,35,30.14,10.0,NNW,15.0,19.6,N/A,,Clear,330,2013-09-23 17:35:00
11:55 AM,61.9,34.3,36,30.14,10.0,NNW,15.0,23.0,N/A,,Clear,340,2013-09-23 17:55:00
12:15 PM,62.1,33.6,34,30.14,10.0,NW,15.0,20.7,N/A,,Clear,320,2013-09-23 18:15:00
12:35 PM,63.1,34.3,34,30.14,10.0,NNW,15.0,23.0,N/A,,Clear,330,2013-09-23 18:35:00
12:55 PM,63.9,33.4,32,30.14,10.0,NNW,15.0,20.7,N/A,,Clear,330,2013-09-23 18:55:00
1:15 PM,64.2,34.3,33,30.14,10.0,NNW,12.7,18.4,N/A,,Clear,340,2013-09-23 19:15:00
1:35 PM,65.1,34.5,32,30.13,10.0,NW,13.8,19.6,N/A,,Clear,320,2013-09-23 19:35:00
1:55 PM,65.8,34.0,31,30.12,10.0,NW,15.0,21.9,N/A,,Clear,320,2013-09-23 19:55:00
2:15 PM,66.2,31.6,28,30.12,10.0,WNW,11.5,26.5,N/A,,Clear,290,2013-09-23 20:15:00
2:35 PM,66.4,32.9,29,30.12,10.0,North,18.4,-,N/A,,Clear,350,2013-09-23 20:35:00
2:55 PM,67.1,33.3,29,30.12,10.0,NNW,11.5,25.3,N/A,,Clear,340,2013-09-23 20:55:00
3:15 PM,67.5,32.7,28,30.12,10.0,NNW,17.3,23.0,N/A,,Clear,340,2013-09-23 21:15:00
3:35 PM,68.2,32.2,26,30.12,10.0,NW,11.5,21.9,N/A,,Clear,320,2013-09-23 21:35:00
3:55 PM,67.8,31.3,26,30.12,10.0,NNW,15.0,19.6,N/A,,Clear,340,2013-09-23 21:55:00
4:15 PM,68.0,32.7,27,30.13,10.0,NW,13.8,18.4,N/A,,Clear,310,2013-09-23 22:15:00
4:35 PM,68.0,31.6,26,30.14,10.0,NW,15.0,19.6,N/A,,Clear,320,2013-09-23 22:35:00
4:55 PM,68.0,31.3,26,30.14,10.0,NW,9.2,16.1,N/A,,Clear,320,2013-09-23 22:55:00
5:15 PM,68.2,31.3,25,30.14,10.0,NW,9.2,16.1,N/A,,Clear,320,2013-09-23 23:15:00
5:35 PM,67.3,31.8,27,30.14,10.0,NW,6.9,-,N/A,,Clear,320,2013-09-23 23:35:00
5:55 PM,67.3,31.1,26,30.15,10.0,NNW,10.4,-,N/A,,Clear,330,2013-09-23 23:55:00
6:15 PM,66.0,31.8,28,30.15,10.0,NNW,9.2,-,N/A,,Clear,330,2013-09-24 00:15:00
6:35 PM,64.8,31.5,29,30.16,10.0,North,9.2,-,N/A,,Clear,350,2013-09-24 00:35:00
6:55 PM,62.4,33.8,34,30.16,10.0,NNW,6.9,-,N/A,,Clear,330,2013-09-24 00:55:00
7:15 PM,56.8,37.0,48,30.17,10.0,NNW,6.9,-,N/A,,Clear,340,2013-09-24 01:15:00
7:35 PM,53.8,39.0,57,30.18,10.0,NW,6.9,-,N/A,,Clear,310,2013-09-24 01:35:00
7:55 PM,54.0,38.3,55,30.19,10.0,NW,4.6,-,N/A,,Clear,320,2013-09-24 01:55:00
8:15 PM,54.1,37.9,54,30.21,10.0,Calm,Calm,-,N/A,,Clear,0,2013-09-24 02:15:00
8:35 PM,52.2,39.0,61,30.22,10.0,North,6.9,-,N/A,,Clear,350,2013-09-24 02:35:00
8:55 PM,49.1,39.9,71,30.23,10.0,NW,8.1,-,N/A,,Clear,320,2013-09-24 02:55:00
9:15 PM,48.4,40.5,74,30.24,10.0,NW,5.8,-,N/A,,Clear,310,2013-09-24 03:15:00
9:35 PM,45.9,38.7,76,30.25,10.0,Calm,Calm,-,N/A,,Clear,0,2013-09-24 03:35:00
9:55 PM,47.1,39.4,74,30.26,10.0,West,5.8,-,N/A,,Clear,280,2013-09-24 03:55:00
10:15 PM,49.1,37.6,64,30.26,10.0,West,9.2,-,N/A,,Clear,270,2013-09-24 04:15:00
10:35 PM,50.2,36.0,58,30.26,10.0,West,9.2,-,N/A,,Clear,280,2013-09-24 04:35:00
10:55 PM,48.6,36.7,64,30.26,10.0,West,6.9,-,N/A,,Clear,280,2013-09-24 04:55:00
11:15 PM,48.7,35.8,61,30.26,10.0,West,9.2,-,N/A,,Clear,270,2013-09-24 05:15:00
11:35 PM,47.3,36.3,66,30.26,10.0,North,3.5,-,N/A,,Clear,350,2013-09-24 05:35:00
11:55 PM,46.0,36.5,69,30.26,10.0,Calm,Calm,-,N/A,,Clear,0,2013-09-24 05:55:00